Tracking 33446 objects as of 10-Mar-2026
HD Live streaming from Space Station
objects crossing your sky now

STARLINK-35724

Track STARLINK-35724 now!
10-day predictions
STARLINK-35724 is classified as:


NORAD ID: 66279
Int'l Code: 2025-247Q
Perigee: 481.6 km
Apogee: 483.2 km
Inclination: 53.2 °
Period: 94.1 minutes
Semi major axis: 6853 km
RCS: Unknown
Launch date: October 31, 2025
Source: United States (US)
Launch site: AIR FORCE WESTERN TEST RANGE (AFWTR)
Your satellite tracking list
Your tracking list is empty




NASA's NSSDC Master Catalog

Two Line Element Set (TLE):
1 66279U 25247Q   26068.64845164  .00004667  00000-0  16971-3 0  9990
2 66279  53.1588 191.9012 0001136  87.9340 272.1791 15.30175525 21025
Source of the keplerian elements: AFSPC